Location: *
(40.4000°N, 15.1200°E)
Time: 17:25:44
(UTC+00:00)

Cosmos 1833 Rocket - Pass Details

Date: 09 April 2020
Orbit: 834 x 838 km, 71.0° (Epoch: 06 June)

Event Time Altitude Azimuth Distance (km) Brightness Sun altitude
Exits shadow 20:38:33 35° 23° (NNE) 1,324 3.8 -31.5°
Drops below altitude 10° 20:41:42 10° 23° (NNE) 2,457 5.3 -31.9°
Sets 20:44:09 0° 24° (NNE) 3,394 6.1 -32.3°
